Regional Weather Roundup
Issued by NWS

Home | Current Version | Previous Version | Text Only | Print | Product List | Glossary On
Versions: 1 2 3 4 5 6 7 8 9 10 11 12 13 14 15 16 17 18 19 20 21 22 23 24 25 26 27 28 29 30 31 32 33 34 35 36 37 38 39 40 41 42 43 44 45 46 47 48 49 50
000
ASUS46 KSEW 301410
RWRWA

WASHINGTON REGIONAL WEATHER ROUNDUP
NATIONAL WEATHER SERVICE SEATTLE WA
700 AM PDT SAT AUG 30 2014

NOTE:"FAIR" INDICATES FEW OR NO CLOUDS BELOW 12,000 FEET WITH NO
SIGNIFICANT WEATHER AND/OR OBSTRUCTIONS TO VISIBILITY.

WAZ505-507>509-301500-
SEATTLE, TACOMA, EVERETT, AND VICINITY

CITY           SKY/WX    TMP DP  RH WIND       PRES   REMARKS
EVERETT        CLOUDY    57  55  93 CALM      29.93R
BOEING FIELD   MOCLDY    63  56  78 CALM      29.91S
RENTON         CLOUDY    60  59  96 CALM      29.91S
SEATAC AIRPORT CLOUDY    61  56  83 SW3       29.93R
JBLM-MCCHORD   LGT RAIN  61  55  82 NW5       29.92S
PUYALLUP       NOT AVBL
JBLM-FT LEWIS  LGT RAIN  60  56  86 SW3       29.92R FOG
TACOMA NARROWS LGT RAIN  59  56  89 S5        29.92S
$$

WAZ001-503-506-510-514-515-301500-
NORTH INTERIOR

CITY           SKY/WX    TMP DP  RH WIND       PRES   REMARKS
BELLINGHAM     CLOUDY    59  54  83 S8        29.89S
FRIDAY HARBOR  FOG       55  54  96 CALM      29.91S VSB 1/4
EASTSOUND      MOCLDY    57  55  94 S12       29.88S
PORT ANGELES   CLOUDY    57  54  89 CALM      29.90S
NAS WHIDBEY    MOCLDY    59  56  89 S3        29.91S
BURLINGTON     CLOUDY    57  57 100 NE3       29.92S
$$

WAZ020-022-039-040-504-511-512-301500-
SOUTHWEST INTERIOR

CITY           SKY/WX    TMP DP  RH WIND       PRES   REMARKS
SHELTON        LGT RAIN  60  58  92 CALM      29.89S FOG
OLYMPIA        RAIN      58  57  97 CALM      29.91F FOG
CHEHALIS       CLOUDY    59  59 100 CALM      29.91S
KELSO          CLOUDY    63  55  77 S6        29.95F
VANCOUVER      CLOUDY    64  56  75 SE6       29.93S
SCAPPOOSE, OR  CLOUDY    61  58  90 CALM      29.92S
PORTLAND, OR   CLOUDY    64  57  78 SE6       29.94R
$$

WAZ021-516-517-301500-
WASHINGTON COAST

CITY           SKY/WX    TMP DP  RH WIND       PRES   REMARKS
FORKS          CLOUDY    58  58 100 CALM      29.90R
HOQUIAM        RAIN      59  59 100 E7        29.89S FOG
ASTORIA, OR    LGT RAIN  60  58  92 CALM      29.89S FOG
$$

WAZ019-023-024-040-518-519-301500-
CASCADE MOUNTAINS AND COLUMBIA GORGE

CITY           SKY/WX    TMP DP  RH WIND       PRES   REMARKS
STAMPEDE PASS  NOT AVBL
TROUTDALE, OR  CLOUDY    63  56  78 SE7       29.94R
THE DALLES, OR MOCLDY    65  53  65 W8        29.90R
$$

WAZ026-027-041>044-520-521-301500-
EAST SLOPES

CITY           SKY/WX    TMP DP  RH WIND       PRES   REMARKS
OMAK           PTCLDY    49  42  77 NW3       29.87R
WENATCHEE      PTCLDY    60  46  59 W9        29.87S
ELLENSBURG     PTCLDY    58  47  66 N10       29.90S
YAKIMA         CLEAR     54  48  80 W5        29.90R
$$

WAZ028-034-035-301500-
COLUMBIA BASIN

CITY           SKY/WX    TMP DP  RH WIND       PRES   REMARKS
EPHRATA        CLEAR     56  47  71 CALM      29.86R
MOSES LAKE     CLEAR     58  49  72 S6        29.87R
PASCO          CLEAR     55  53  93 N6        29.89R
HERMISTON, OR  MOCLDY    63  50  62 S3        29.89R
$$

WAZ036>038-301500-
NORTHEAST WASHINGTON

CITY           SKY/WX    TMP DP  RH WIND       PRES   REMARKS
SPOKANE GEIGER MOCLDY    54  44  69 S9        29.88R
SPOKANE FELTS  CLOUDY    58  44  60 SW3       29.89R
FAIRCHILD AFB  MOCLDY    51  44  75 S6        29.88S
COEURDALENE,ID CLOUDY    55  45  67 CALM      29.88F
DEER PARK      MOCLDY    52  43  71 SE6       29.88R
$$

WAZ029>033-301500-
SOUTHEAST WASHINGTON

CITY           SKY/WX    TMP DP  RH WIND       PRES   REMARKS
PULLMAN        CLOUDY    57  46  66 SW6       29.94R
LEWISTON, ID   CLOUDY    64  48  56 CALM      29.89R
WALLA WALLA    MOCLDY    62  48  60 S7        29.92R
PENDLETON, OR  MOCLDY    61  47  59 S5        29.92R
$$



USA.gov is the U.S. government's official web portal to all federal, state and local government web resources and services.